(116) Sirona
ephemeris date magn radius delta ra dec elong phase
Today9 May 202513.02.435 AU2.855 AU07h02m+25°19'55.8°20.1°
Opposition3 May 202610.92.568 AU1.560 AU14h44m-13°44'177.9°0.8°
(116) Sirona - 2025-05-09
astro.vanbuitenen.nl


 
-1 year
-1 month
-1 day
Now
+1 day
+1 month
+1 year

The interactive orbit chart above shows the body's path through the solar system and its position at the given date. Green and blue lines are shown perpendicular to the ecliptic plane: Green if the path is above the ecliptic plane, blue if it is below. (Left-click and drag to rotate the view; Right-click and drag to move the view; Use scroll wheel to zoom in our out.)

The orbital elements of Sirona are:

            e (Eccentricity)                : 0.1383098
            a (Semimajor axis)              : 2.7692364
            i (Inclination)                 : 3.56144
            Ω (Longitude of ascending node) : 63.68037
            ω (Argument of perihelion)      : 93.90772
            M (Mean anomaly)                : 333.74194
            Epoch                           : 2025 May 05

            L (Longitude of perihelion)     : -22.40437
            B (Latitude of perihelion)      : 3.55315
            P (Orbital period in years)     : 4.61            
        

The light curve chart below shows the estimated development of the minor planet's magnitude.


The all-sky chart below shows the path of the minor planet over the same period as the light curve. The current position is marked yellow.





The following chart shows the path of the minor planet in the next few days. The field of view is optimized for (~10x50) binoculars and finderscopes. A more printer-friendly version of the same chart can be found below.




Ephemerides:
Date       Time       RA (2000)    DEC (2000)    delta   radius  elong  phase   PA    magn
2025-05-09 00:00 UT   07 02 13.3   +25 19 33     2.855    2.435   55.8   20.1    94   13.0 
2025-05-09 21:54 UT   07 03 50.4   +25 17 02     2.864    2.434   55.3   19.9    94   13.0 
2025-05-10 00:00 UT   07 03 59.7   +25 16 47     2.864    2.434   55.2   19.9    94   13.0 
2025-05-11 00:00 UT   07 05 46.4   +25 13 56     2.874    2.434   54.7   19.8    95   13.0 
2025-05-12 00:00 UT   07 07 33.5   +25 11 00     2.883    2.433   54.1   19.7    95   13.0 
2025-05-13 00:00 UT   07 09 20.9   +25 07 60     2.892    2.432   53.6   19.5    95   13.0 
2025-05-14 00:00 UT   07 11 08.7   +25 04 54     2.901    2.431   53.0   19.4    95   13.0 
2025-05-15 00:00 UT   07 12 56.9   +25 01 43     2.910    2.430   52.5   19.3    95   13.0 
2025-05-16 00:00 UT   07 14 45.4   +24 58 27     2.919    2.430   51.9   19.1    95   13.0 
2025-05-17 00:00 UT   07 16 34.2   +24 55 06     2.928    2.429   51.4   19.0    95   13.0 
2025-05-18 00:00 UT   07 18 23.3   +24 51 40     2.937    2.428   50.8   18.8    96   13.0 
2025-05-19 00:00 UT   07 20 12.7   +24 48 09     2.946    2.427   50.3   18.7    96   13.0 
2025-05-20 00:00 UT   07 22 02.5   +24 44 33     2.955    2.427   49.7   18.6    96   13.0 
2025-05-21 00:00 UT   07 23 52.5   +24 40 51     2.963    2.426   49.2   18.4    96   13.0 
2025-05-22 00:00 UT   07 25 42.9   +24 37 05     2.972    2.425   48.7   18.3    96   13.0 
2025-05-23 00:00 UT   07 27 33.5   +24 33 13     2.980    2.425   48.1   18.1    96   13.0 
2025-05-24 00:00 UT   07 29 24.3   +24 29 16     2.989    2.424   47.6   18.0    96   13.0 
2025-05-25 00:00 UT   07 31 15.5   +24 25 13     2.997    2.423   47.1   17.8    96   13.0 
2025-05-26 00:00 UT   07 33 06.9   +24 21 06     3.005    2.422   46.5   17.7    97   13.0 
2025-05-27 00:00 UT   07 34 58.5   +24 16 53     3.013    2.422   46.0   17.5    97   13.0 
2025-05-28 00:00 UT   07 36 50.4   +24 12 35     3.022    2.421   45.5   17.4    97   13.0 
2025-05-29 00:00 UT   07 38 42.5   +24 08 11     3.030    2.420   44.9   17.2    97   13.0 


    Terminology:
            
    delta:  distance between minor planet and earth in AU
    radius: distance between minor planet and sun in AU
    magn:   magnitude (brightness) estimate    
    ra:     right ascension in hours (24h = 360deg)
    dec:    declination in degrees
    elong:  elongation in degrees (angle sun-earth-minor planet)    
    phase:  phase angle in degrees (angle sun-minor planet-earth)        
    AU:     Astronomical Unit (mean distance between earth and sun: 149597870.7 km
    

Orbital elements provided by the MPC (Minor Planet Center).
Calculations by a modified version of AAPlus, a C# implementation of the AA+ project by PJ Naughter from the algorithms presented in the book "Astronomical Algorithms" by Jean Meeus.
NGC2000 dso catalog and star labels from VizieR as provided by the Strasbourg astronomical Data Center.
Tycho2 catalog from the ESO archive.